Location: Terra Rouge Observatory
(46.0000°N, 62.7500°W)
Time: 12:12:34
(UTC-03:00)

NOSS 3-1 (A) - Visible Passes

Search period start: 27 August 2016 00:00
Search period end: 06 September 2016 00:00
Orbit: 855 x 1358 km, 63.4° (Epoch: 10 August)

Date Brightness Start Highest point End Pass type
(mag) Time Alt. Az. Time Alt. Az. Time Alt. Az.
01 Sep 6.0 05:59:18 10° SE 06:02:52 16° ESE 06:06:37 10° ENE visible
04 Sep 5.7 05:34:48 10° SSE 05:39:16 23° ESE 05:44:05 10° ENE visible
05 Sep 6.0 04:52:28 10° SE 04:55:06 13° ESE 04:57:51 10° ENE visible
